Regional Weather Roundup
Issued by NWS Upton, NY

Current Version | Previous Version | Text Only | Print | Product List | Glossary Off
Versions: 1 2 3 4 5 6 7 8 9 10 11 12 13 14 15 16 17 18 19 20 21 22 23 24 25 26 27 28 29 30 31 32 33 34 35 36 37 38 39 40 41 42 43 44 45 46 47 48 49 50
156 ASUS41 KOKX 201009 RWROKX REGIONAL WEATHER ROUNDUP NATIONAL WEATHER SERVICE NEW YORK NY 500 AM EST MON NOV 20 2017 NOTE: "FAIR" INDICATES FEW OR NO CLOUDS BELOW 12,000 FEET WITH NO SIGNIFICANT WEATHER AND/OR OBSTRUCTIONS TO VISIBILITY. NYZ071-072-176-178-NJZ106-104-201100- NEW YORK CITY METRO AREA CITY SKY/WX TMP DP RH WIND PRES REMARKS Central Park MOCLDY 37 24 59 VRB6G18 29.95R WCI 32 Bronx Bot Gard N/A 37 25 60 SW8 29.95R WCI 31 LaGuardia APRT MOCLDY 39 24 55 W14 29.93R WCI 31 Kennedy INTL PTCLDY 38 24 57 W16G24 29.95R WCI 29 Breezy Point N/A 37 N/A N/A W14G22 N/A WCI 29 Newark/Liberty MOCLDY 37 26 64 W10 29.94R WCI 30 Teterboro CLOUDY 37 25 61 W7 29.93R WCI 32 $$ NYZ177-179-078>081-201100- LONG ISLAND NEW YORK CITY SKY/WX TMP DP RH WIND PRES REMARKS Jones Beach N/A 39 N/A N/A W17 N/A WCI 30 Matinecock PT N/A 39 N/A N/A W26G32 N/A WCI 28 Farmingdale PTCLDY 38 21 50 NW9G17 29.92R WCI 31 MacArthur/ISP CLEAR 38 20 48 W14G22 29.90R WCI 30 Shirley CLEAR 38 19 46 NW13G28 29.91R WCI 30 Mt Sinai Harb N/A N/A N/A N/A NW16G23 N/A Westhampton CLEAR 37 18 46 W16 29.91R WCI 28 East Hampton FAIR 38 20 49 NW12G21 29.87R WCI 30 Southold NOT AVBL Montauk NOT AVBL $$ NYZ052-065-067-201100- HUDSON VALLEY CITY SKY/WX TMP DP RH WIND PRES REMARKS White Plains MOCLDY 35 20 54 W7 29.83R WCI 29 Larchmont Harb N/A 37 N/A N/A W13 N/A WCI 29 Croton On Huds N/A 37 N/A N/A W9 N/A WCI 31 Newburgh CLOUDY 34 21 60 NW12G17 29.89R WCI 25 Montgomery CLOUDY 35 20 54 W7 29.88R WCI 29 Poughkeepsie MOCLDY 35 17 47 W12 29.88R WCI 27 Albany MOCLDY 31 19 61 NW12 29.86R WCI 22 $$ NJZ001-105-106-008-010-013-015-019>022-104-201100- NEW JERSEY CITY SKY/WX TMP DP RH WIND PRES REMARKS Newark/Liberty MOCLDY 37 26 64 W10 29.94R WCI 30 Teterboro CLOUDY 37 25 61 W7 29.93R WCI 32 Caldwell CLOUDY 35 25 66 VRB3 29.94R Somerville CLEAR 36 23 59 VRB3 29.94R Linden PTSUNNY 37 26 66 NW7G16 29.95R WCI 31 Perth Amboy N/A 37 N/A N/A W10 N/A WCI 30 Sussex MOCLDY 34 24 67 VRB7 29.91R WCI 28 Andover NOT AVBL Trenton CLEAR 36 24 62 W7 29.97R WCI 30 Millville MOCLDY 40 25 55 W12 30.03R WCI 33 Atlantic City PTCLDY 38 26 62 W8 30.01R WCI 32 Wrightstown CLEAR 36 23 59 W13 29.96R WCI 28 Toms River CLEAR 36 23 59 W7 29.99R WCI 30 Belmar CLEAR 36 23 59 W7 29.97R WCI 30 $$ PAZ047>061-062-071-201100- EASTERN PENNSYLVANIA CITY SKY/WX TMP DP RH WIND PRES REMARKS Philadelphia PTCLDY 39 25 57 W15 30.02R WCI 31 Allentown CLOUDY 35 24 64 W10 29.96R WCI 27 Scranton CLOUDY 33 26 75 SW10 29.92R WCI 25 $$ CTZ002-004>006-009-010-012-RIZ004-006-007-MAZ004-011-015-201100- SOUTHERN NEW ENGLAND IN CT CITY SKY/WX TMP DP RH WIND PRES REMARKS Bradley INTL PTCLDY 34 17 50 NW14G22 29.84R WCI 25 Hartford PTCLDY 35 21 56 W5 29.86R WCI 31 Danbury PTCLDY 35 16 45 W9 29.88R WCI 28 Wtrbury/Oxford CLEAR 32 18 56 W6 29.85R WCI 26 Norwalk Harbor N/A 36 N/A N/A W13 N/A WCI 27 Bridgeport CLEAR 37 19 48 W12G20 29.89R WCI 29 Meriden PTCLDY 34 18 52 CALM 29.87R New Haven CLEAR 38 20 48 W9G17 29.88R WCI 31 Chester FAIR 34 16 47 W7 29.85R WCI 28 Groton CLEAR 36 24 62 W10 29.85R WCI 28 Wilimantic PTCLDY 36 19 50 W12G23 29.84R WCI 28 IN RI CITY SKY/WX TMP DP RH WIND PRES REMARKS Providence MOCLDY 36 25 64 W9G21 29.81R WCI 29 Block Island MOCLDY 37 27 67 W10G21 29.84R WCI 30 Westerly CLEAR 36 29 75 VRB6 29.85R WCI 31 IN MA CITY SKY/WX TMP DP RH WIND PRES REMARKS Boston MOCLDY 37 25 61 W10G21 29.76R WCI 30 Worcester FLURRIES 30 20 66 W24G31 29.74R WCI 16 Westfield CLEAR 33 17 51 NW17G30 29.82R WCI 22 Provincetown CLOUDY 39 25 57 MISG 29.76R Nantucket CLOUDY 40 26 57 W21G28 29.78R WCI 30 $$ ANZ330-335-338-340-345-350-353-355-201100- COASTAL MARINE OBSERVATIONS STATION/POSITION TIME SKY/WX TEMP WIND PRES VSBY WAVE AIR SEA DIR/SP/G HT/PER (UTC) (F) (DEG/KT/KT) (MB) (MI) (FT/S) NY HARB ENTRANCE 0850 43 57 290/ 25/ 31 1011.7 4/ 5 20 S FIRE ISLAND 0950 43 57 310/ 25/ 31 1012.6 7/ 6 GREAT SOUTH BAY 0930 40 47 310/ 16/ 25 N/A HUDSON CANYON 0850 47 59 290/ 29/ 37 1011.0 10/ 7 KINGS POINT 0936 40 51 350/ 16/ 20 1014.0 EXECUTION ROCKS 0945 40 260/ 16/ 19 N/A WESTERN LI SOUND 0849 41 280/ 17/ 27 N/A 2/ 3 CENTRAL LI SOUND 0915 42 290/ 21/ 27 N/A 5 ROBBINS REEF 0936 38 270/ 16/ 21 1014.2 $$ >>>>>>>>>>>>>>>>>>>>>>>>>>>> KEY <<<<<<<<<<<<<<<<<<<<<<<<<<< > < > SKY/WX - Sky Condition/Present Weather < > TMP - Temperature in Fahrenheit < > DP - Dew Point in Fahrenheit < > RH - Relative Humidity in Percent < > WIND - Direction (from) and Speed in MPH < > PRES - Mean Sea Level Pressure (inches of Hg) < > WCI - Wind Chill Index < > VSB - VISIBILITY IN MILES < > HX - HEAT INDEX < > TC - TEMPERATURE IN CELSIUS < > VRB - VARIABLE WIND DIRECTION < > < >>>>>>>>>>>>>>>>>>>>>>>>>>>> KEY <<<<<<<<<<<<<<<<<<<<<<<<<<<

USA.gov is the U.S. government's official web portal to all federal, state and local government web resources and services.